This demonstration page uses our WeatherBlox Daily Observations layout. Learn more.

41.55636, -103.73856

Hourly Observations for March 27, 2019

Temp ( °F °C ) Dew Point ( °F °C ) Humidity (%) Winds ( mph kmh ) Pressure ( in mb ) Visibility ( mi km ) Precip ( " mm )
12:58 am 00:58 Clear 52 11.1 31 -0.4 45 45 SSW 12 19 30.01 1016 10 16.0934 0 0
1:58 am 01:58 Clear 46 7.8 32 0.2 59 59 S 8 13 30.01 1016 10 16.0934 0 0
2:58 am 02:58 Mostly Clear 43 6.1 31 -0.6 63 63 SSW 12 19 30.02 1017 10 16.0934 0 0
3:58 am 03:58 Clear 43 5.9 29 -1.6 59 59 SSW 9 15 29.98 1015 10 16.0934 0 0
4:58 am 04:58 Clear 44 6.5 30 -1 59 59 SW 14 22 29.94 1014 10 16.0934 0 0
5:58 am 05:58 Clear 45 7 31 -0.8 58 58 SW 14 22 29.92 1013 10 16.0934 0 0
6:58 am 06:58 Clear 44 6.6 30 -1 59 59 WSW 12 19 29.91 1013 10 16.0934 0 0
7:58 am 07:58 Clear 47 8.2 30 -1 53 53 SW 17 28 29.89 1012 10 16.0934 0 0
8:58 am 08:58 Mostly Cloudy 42 5.7 31 -0.6 64 64 NW 13 20 29.91 1013 10 16.0934 0 0
9:58 am 09:58 Mostly Cloudy 40 4.5 30 -1.3 66 66 WNW 13 20 29.92 1013 10 16.0934 0 0
10:58 am 10:58 Mostly Clear 42 5.4 27 -2.7 56 56 W 15 24 29.91 1013 10 16.0934 0 0
11:58 am 11:58 Mostly Clear 44 6.4 26 -3.1 51 51 NW 12 19 29.93 1013 10 16.0934 0 0
12:58 pm 12:58 Mostly Sunny 41 5 26 -3.1 56 56 W 15 24 29.97 1015 10 16.0934 0 0
1:58 pm 13:58 Sunny 41 5.1 28 -2.5 58 58 W 13 20 30.02 1017 10 16.0934 0 0
2:58 pm 14:58 Sunny 47 8.5 28 -2.1 48 48 NW 14 22 30 1016 10 16.0934 0 0
3:58 pm 15:58 Sunny 52 10.9 31 -0.8 45 45 NW 12 19 30.01 1016 10 16.0934 0 0
4:58 pm 16:58 Sunny 57 13.8 31 -0.5 38 38 NNW 13 20 29.99 1016 10 16.0934 0 0
5:58 pm 17:58 Sunny 59 14.8 28 -2.3 31 31 NW 15 24 29.97 1015 10 16.0934 0 0
6:58 pm 18:58 Sunny 60 15.7 28 -2.4 29 29 NNW 14 22 29.95 1014 10 16.0934 0 0
7:58 pm 19:58 Sunny 63 17 27 -2.7 26 26 NNW 10 17 29.91 1013 10 16.0934 0 0
8:58 pm 20:58 Sunny 64 17.5 26 -3.3 24 24 NNE 6 9 29.91 1013 10 16.0934 0 0
9:58 pm 21:58 Sunny 64 17.5 22 -5.3 21 21 Calm 29.91 1013 10 16.0934 0 0
10:58 pm 22:58 Sunny 64 17.6 28 -2.1 26 26 ESE 5 7 29.89 1012 10 16.0934 0 0
11:58 pm 23:58 Sunny 62 16.4 30 -1 31 31 E 8 13 29.9 1012 10 16.0934 0 0

Powered by AerisWeather